Temperature
20 20 19 19 19 19 19 19 19 19 19 19 19 19 19 19 19 19 19 19 19 19 19 19 19 19 19 19 19 19 19 19 19 19 19 19 19 19 19 19 19 19 18
21 20 19 19 19 19 19 19 19 19 19 19 18 18 19 19 19 19 19 19 19 19 19 19 19 19 19 19 19 19 19 19 19 19 19 19 19 19 19 19 19 19 19
20 20 19 19 19 19 19 19 19 19 19 19 19 18 19 19 19 19 19 19 19 19 19 19 19 19 19 19 19 19 19 19 19 19 19 19 19 19 19 19 19 19 19
20 20 19 19 19 19 19 19 19 19 19 18 18 18 18 19 19 19 19 19 19 19 18 18 18 18 18 18 18 18 18 18 18 18 19 19 19 19 19 19 19 19 19
20 20 19 19 19 19 19 19 19 18 18 18 18 18 18 18 19 19 19 19 18 18 18 18 18 18 18 18 18 18 18 18 18 18 18 18 19 19 19 19 19 19 19
20 20 19 19 19 19 19 18 18 18 18 18 18 18 18 18 18 18 19 18 18 18 18 18 18 18 18 18 18 18 18 18 18 18 18 19 19 19 19 19 19 18 18
20 20 19 19 19 19 19 18 18 18 18 18 18 18 18 18 18 18 18 18 18 18 18 18 18 18 18 18 18 18 18 18 18 19 19 19 19 18 18 18 18 18 18
20 20 19 19 19 19 19 18 18 18 18 18 18 18 18 18 18 18 18 18 18 18 18 17 17 17 18 18 18 18 18 18 18 18 18 18 18 18 18 18 18 18 18
19 20 19 19 19 19 18 18 18 18 18 18 18 18 18 18 18 18 18 18 18 18 18 17 17 17 17 17 17 17 18 18 18 18 18 18 18 18 18 18 18 18 18
19 20 20 19 19 19 19 18 18 18 18 18 18 18 18 18 18 18 18 18 18 18 18 18 17 17 17 17 17 17 17 17 17 17 18 18 18 18 18 18 18 18 18
19 19 20 19 19 19 19 18 18 18 18 18 18 18 18 18 18 18 18 18 18 18 18 17 17 17 17 17 17 17 17 17 17 17 17 18 18 18 18 18 18 18 18
20 20 20 20 19 19 19 19 19 18 18 18 18 18 18 18 18 18 18 18 18 18 17 17 17 17 17 17 17 17 17 17 17 17 17 17 18 18 18 18 18 18 18
20 20 20 20 19 19 19 19 19 19 19 18 18 18 18 18 18 18 18 18 18 17 17 17 17 17 17 17 17 16 16 16 16 17 17 17 17 18 18 18 18 18 17
20 20 20 20 20 20 19 19 19 19 19 19 19 18 18 18 18 18 18 18 18 17 17 17 16 16 16 16 16 16 16 16 16 16 16 17 17 17 17 17 17 17 17
21 20 20 20 20 20 20 20 19 19 19 19 19 18 18 18 18 18 18 18 17 17 17 16 17 17 17 17 16 16 16 16 16 16 16 16 16 17 17 17 17 17 17
21 21 21 20 20 20 20 20 20 20 19 19 19 18 18 18 18 18 18 18 17 17 17 17 17 17 17 17 16 16 16 16 16 16 16 16 16 16 16 16 17 17 16
22 22 21 21 21 20 20 20 20 20 19 19 19 18 18 18 18 18 18 18 17 17 17 17 17 17 17 17 16 16 16 16 16 16 16 16 16 16 16 16 16 16 16
23 22 22 21 21 21 20 20 20 20 19 19 19 18 18 18 17 17 18 17 17 17 17 17 17 17 17 17 16 16 16 16 16 16 16 16 16 16 16 16 16 16 17
23 23 23 22 22 21 21 20 20 20 19 19 19 18 18 18 17 17 17 17 17 17 17 17 17 17 17 17 16 16 16 16 16 16 16 16 16 16 16 16 16 16 17
23 23 23 23 22 21 21 20 20 20 19 19 19 19 18 18 18 17 17 17 17 17 17 17 17 17 16 16 16 16 16 16 16 16 16 16 16 16 16 16 16 16 16
23 23 23 23 22 22 21 21 20 20 20 19 19 19 18 18 18 18 18 17 17 17 17 17 17 16 16 16 16 16 16 16 16 16 16 16 16 16 16 16 16 16 16
23 24 23 23 23 22 22 21 21 20 20 19 19 19 18 18 18 18 18 17 17 17 17 17 17 16 16 16 16 16 15 15 15 16 16 15 15 16 16 16 16 16 16
23 24 23 23 23 22 22 21 20 20 20 19 19 19 19 18 18 18 17 17 17 17 17 17 17 16 16 16 16 16 16 16 16 16 16 16 15 15 15 15 15 15 16
23 23 23 23 22 22 21 21 20 20 20 19 19 18 18 18 17 17 17 17 17 17 17 17 17 16 16 16 15 15 15 16 16 16 16 16 15 15 15 15 15 15 15
22 22 21 21 21 20 20 20 20 19 19 19 18 18 18 17 17 17 17 17 17 17 16 16 16 16 16 15 15 15 15 15 15 16 16 16 16 16 15 15 15 15 15
20 20 20 20 19 19 19 19 19 19 19 18 18 18 18 17 17 17 17 17 17 16 16 16 16 16 15 15 15 15 15 15 15 15 16 16 16 16 16 15 15 15 15
Wind_Speed
5 7 12 12 11 11 12 13 13 13 13 14 14 14 14 13 13 12 11 10 10 9 8 8 9 9 9 9 8 9 9 10 9 9 9 8 7 6 6 6 6 4 5
9 10 14 13 12 11 11 12 13 13 13 13 14 14 14 13 12 11 11 10 10 9 8 8 8 8 9 8 8 8 9 9 9 9 9 8 7 7 7 7 6 5 6
12 12 14 14 13 12 11 12 12 13 13 13 14 14 13 12 12 11 10 10 9 9 8 8 8 8 8 8 8 8 8 8 9 8 8 6 6 7 8 8 8 8 8
13 12 14 15 13 12 11 11 12 12 12 13 13 13 12 11 11 10 10 10 9 9 8 8 8 8 8 8 7 7 6 7 7 7 6 5 4 7 8 9 9 8 9
9 11 14 15 13 12 11 11 12 12 12 13 13 12 12 11 10 9 9 9 8 8 8 8 8 9 9 8 7 6 6 6 8 7 6 5 5 6 8 8 8 8 8
9 10 13 15 14 12 12 11 12 12 12 12 12 12 11 10 9 8 8 8 8 7 7 7 8 9 9 9 8 7 7 8 9 7 6 5 4 6 7 7 7 7 8
8 9 11 15 14 13 12 12 12 12 12 12 11 11 11 10 9 8 7 7 7 6 6 6 7 9 9 9 9 8 9 9 9 7 5 4 3 5 6 6 6 7 7
10 9 11 15 14 13 13 12 12 12 11 11 11 11 10 10 9 7 7 6 6 5 5 5 6 8 9 9 9 8 8 8 7 6 4 3 3 5 5 5 6 6 7
8 7 8 11 13 13 13 12 12 12 11 11 11 11 10 9 9 7 6 6 5 4 4 4 5 7 8 8 7 6 6 8 7 5 3 2 3 5 5 5 6 6 6
7 7 6 9 10 10 11 12 12 12 11 11 11 10 10 9 8 7 6 5 5 4 3 3 5 6 7 7 6 5 7 8 6 5 4 3 4 6 6 6 6 6 6
7 6 6 6 8 9 10 11 12 12 12 11 11 10 9 7 6 6 6 5 5 4 3 3 4 6 7 7 6 7 7 6 5 4 3 3 5 6 6 7 7 6 6
9 8 6 7 6 8 9 9 9 9 10 10 9 8 8 7 6 5 5 6 5 4 3 3 4 6 7 6 6 7 6 5 4 3 2 2 4 5 5 6 6 6 6
9 9 9 7 6 6 5 7 7 8 8 9 9 9 9 7 5 4 2 2 2 3 3 4 5 5 5 5 5 6 6 5 3 2 1 1 3 4 5 4 5 5 5
8 10 9 9 7 6 6 5 6 6 6 6 9 10 9 5 4 3 3 2 2 2 2 2 2 2 3 4 5 5 5 4 3 2 2 1 3 5 5 5 4 4 5
10 11 10 10 9 7 5 4 5 5 6 8 9 10 10 5 4 3 3 3 3 2 1 0 1 0 1 3 4 5 4 4 3 3 3 2 3 4 5 6 5 5 4
12 12 11 12 11 9 7 6 5 6 7 8 8 10 11 8 5 4 3 3 4 4 3 2 1 2 2 4 4 4 4 3 3 4 4 5 5 5 6 7 7 6 5
12 12 13 13 11 11 9 8 5 6 7 6 8 11 11 10 8 5 4 4 4 5 4 2 2 3 3 4 4 4 3 3 4 4 5 6 6 7 7 7 7 7 6
10 12 13 13 13 12 10 8 5 6 6 6 8 10 12 12 10 6 4 4 5 6 4 3 3 3 3 4 3 3 2 2 3 4 5 6 7 7 8 8 8 7 6
13 13 14 13 14 13 11 8 6 5 6 7 9 9 11 13 12 8 5 4 5 4 3 4 3 3 3 4 3 2 2 1 1 2 3 5 6 7 7 8 8 7 6
13 13 14 13 12 11 8 6 5 5 5 5 6 9 11 12 12 9 5 5 5 4 4 4 4 3 3 4 4 3 2 1 1 0 0 2 3 4 4 4 5 6 6
14 15 14 14 12 11 8 7 6 6 5 5 5 8 10 10 11 9 6 5 5 5 5 5 4 4 3 3 4 3 2 2 1 2 1 0 1 1 1 2 2 3 4
18 17 16 15 14 13 10 7 4 3 3 3 3 4 8 9 9 9 7 6 6 5 6 6 5 4 3 4 4 3 1 2 2 2 2 3 3 2 2 2 1 0 1
17 16 13 13 12 10 8 6 4 3 2 2 4 4 5 7 8 7 7 6 7 7 7 8 8 7 5 3 2 4 4 5 3 2 3 3 3 3 3 4 5 4 3
12 11 10 10 10 8 8 7 7 6 5 5 3 3 4 6 6 7 7 7 7 7 7 8 8 6 6 5 2 1 1 3 3 2 2 2 4 5 5 4 6 8 7
6 8 9 10 10 9 7 6 5 4 3 2 2 3 3 4 5 6 6 6 7 7 8 8 8 8 6 6 5 3 2 0 1 3 2 3 2 4 5 5 6 8 10
8 10 12 12 9 8 6 4 5 5 4 3 2 2 2 2 2 4 4 5 6 6 7 7 8 9 8 7 7 6 5 4 4 3 3 3 4 3 4 4 5 8 11
Wind_Direction
171 176 164 150 143 139 140 140 137 133 130 127 125 123 119 117 113 108 105 102 100 100 101 102 103 104 104 106 107 111 117 120 122 120 117 113 110 115 122 118 111 98 103
154 166 162 154 148 143 142 142 141 138 136 133 128 125 121 118 115 111 107 104 100 99 100 104 106 107 104 102 106 110 114 120 121 119 112 106 103 107 113 107 102 97 97
148 161 160 156 152 148 147 147 146 142 140 136 130 127 124 121 119 115 110 107 102 99 98 103 108 108 107 103 106 111 115 116 117 112 102 95 99 106 105 103 99 94 93
150 156 158 159 155 153 151 151 150 147 144 139 134 131 127 123 120 117 114 110 104 99 97 97 103 106 106 104 104 108 116 127 129 115 97 87 97 109 104 100 98 96 93
147 150 161 161 159 157 155 154 152 150 147 143 140 137 132 127 122 120 116 112 107 101 95 92 95 99 100 95 91 94 107 127 127 116 100 85 89 106 98 97 99 102 99
143 148 165 164 163 162 160 157 155 152 150 148 147 143 138 133 129 127 123 119 115 108 98 89 88 89 88 82 77 80 92 102 104 108 102 91 86 102 101 104 110 116 114
143 151 170 167 167 166 163 160 158 156 154 154 152 148 144 140 138 136 133 127 121 115 103 88 80 80 75 71 70 78 94 97 99 99 98 94 102 113 112 117 126 127 127
152 155 171 171 171 171 168 165 163 161 161 160 157 153 151 148 143 141 141 137 131 123 110 88 73 72 67 64 65 74 90 95 97 93 93 97 130 130 128 129 133 135 134
155 156 166 170 173 175 173 171 170 168 167 165 160 158 156 152 147 148 150 149 145 137 122 91 70 64 59 57 58 68 93 100 92 84 86 95 136 133 127 125 128 136 136
158 161 159 163 167 170 174 176 174 173 172 169 163 163 162 157 155 156 157 161 158 152 131 90 67 59 58 55 54 75 104 101 85 78 74 104 129 126 121 117 118 124 130
173 169 164 161 161 162 168 179 177 176 174 170 167 170 161 148 146 150 161 172 168 159 135 90 70 67 64 53 58 87 96 97 91 76 66 108 118 119 119 117 115 117 124
186 183 173 170 163 163 173 172 168 168 167 163 161 158 145 146 150 152 178 180 176 165 136 98 74 69 67 57 67 92 97 94 80 57 44 117 126 123 118 119 121 123 129
187 188 183 178 171 169 165 158 159 157 156 158 160 155 152 152 155 151 166 167 121 115 76 53 53 61 62 62 79 101 106 93 71 34 344 156 145 137 131 129 131 134 139
179 191 185 183 178 179 171 165 162 159 160 163 167 164 159 156 162 165 173 165 118 102 87 39 40 51 68 83 97 105 98 88 73 39 345 177 167 155 147 144 138 138 146
188 191 186 183 183 181 174 174 172 172 172 173 173 176 175 169 173 176 181 181 173 166 164 207 1 44 130 122 115 115 102 90 78 55 35 72 114 130 136 139 136 135 132
197 193 186 185 186 182 183 184 179 180 177 176 182 187 189 186 180 176 182 188 195 191 185 185 209 166 146 133 121 118 106 96 86 71 56 58 79 97 111 114 113 113 110
200 194 189 189 186 186 189 191 185 184 179 181 191 195 197 199 195 187 188 196 196 185 173 152 117 118 120 121 121 115 105 99 94 80 71 66 68 80 93 99 101 102 104
200 195 195 194 189 190 190 190 183 183 182 187 192 197 203 207 205 194 198 210 188 167 160 147 132 113 117 126 128 122 109 109 99 88 77 70 68 69 77 83 83 84 91
206 199 196 195 189 191 189 185 184 180 187 190 191 197 205 210 207 199 206 213 181 161 163 166 148 141 149 146 136 110 105 111 85 98 81 72 71 71 70 71 69 67 75
211 204 200 195 187 180 174 169 177 191 197 192 194 201 202 207 205 199 205 209 182 173 180 172 158 140 143 147 128 90 52 348 310 307 107 82 78 71 69 71 66 61 64
213 206 199 194 184 173 171 175 184 203 202 202 201 202 201 202 200 197 201 198 187 192 193 175 153 147 132 132 104 73 19 9 253 255 259 198 154 104 93 76 68 61 55
212 208 200 195 187 182 184 175 166 161 181 195 193 196 200 198 196 199 195 194 192 191 186 179 159 150 152 161 137 124 91 325 300 230 222 221 220 217 219 224 212 170 84
212 206 198 189 181 176 165 143 114 104 103 156 198 205 199 194 195 197 193 190 190 188 194 191 178 169 168 180 168 150 161 212 248 283 236 220 208 211 227 229 227 227 217
207 190 172 162 153 151 153 165 171 184 197 208 198 198 193 194 197 198 193 189 192 193 197 196 186 178 165 175 174 133 161 162 164 228 287 243 216 218 221 222 221 225 224
173 147 135 130 128 132 148 170 187 199 196 163 158 183 193 194 198 198 194 188 194 197 199 194 184 183 182 177 170 155 141 129 143 156 229 261 254 234 219 218 220 221 223
79 101 110 106 102 113 122 158 194 198 180 163 174 181 188 188 198 196 186 187 194 197 197 195 191 189 192 186 182 182 181 181 191 175 190 223 237 249 229 219 217 218 218
Height
1510 1513 1516 1518 1520 1522 1523 1525 1526 1527 1528 1529 1530 1531 1532 1533 1534 1535 1536 1536 1537 1537 1538 1539 1539 1540 1541 1542 1543 1544 1545 1545 1546 1547 1548 1549 1549 1549 1550 1550 1550 1550 1550
1510 1513 1516 1519 1521 1523 1525 1526 1527 1528 1529 1530 1532 1533 1533 1534 1535 1536 1537 1538 1538 1539 1539 1540 1540 1541 1542 1543 1544 1545 1546 1547 1548 1548 1549 1550 1550 1551 1551 1551 1551 1551 1551
1511 1513 1516 1519 1522 1524 1526 1527 1528 1529 1530 1532 1533 1534 1535 1536 1537 1537 1538 1539 1539 1540 1540 1540 1541 1542 1542 1543 1545 1546 1547 1548 1549 1550 1550 1551 1551 1552 1552 1552 1552 1552 1552
1512 1514 1517 1520 1522 1524 1526 1528 1529 1530 1531 1533 1534 1535 1536 1537 1538 1538 1539 1540 1540 1540 1541 1541 1542 1543 1543 1544 1545 1547 1548 1549 1550 1551 1552 1552 1552 1553 1553 1553 1553 1553 1554
1512 1515 1517 1520 1522 1524 1526 1528 1529 1531 1532 1533 1535 1536 1537 1538 1539 1539 1540 1540 1541 1541 1542 1542 1543 1544 1544 1545 1546 1548 1549 1550 1551 1552 1553 1553 1553 1553 1554 1554 1554 1555 1555
1513 1515 1518 1520 1522 1525 1526 1528 1530 1531 1533 1534 1535 1536 1537 1538 1539 1540 1540 1541 1541 1542 1543 1543 1544 1544 1545 1546 1547 1549 1550 1551 1551 1552 1553 1554 1554 1554 1555 1555 1556 1556 1557
1513 1515 1518 1520 1523 1524 1526 1528 1530 1531 1533 1534 1535 1537 1537 1538 1539 1540 1541 1541 1542 1543 1544 1544 1545 1545 1546 1547 1548 1549 1550 1551 1552 1553 1553 1554 1554 1555 1556 1556 1557 1557 1558
1514 1516 1518 1520 1523 1524 1526 1528 1529 1531 1533 1534 1536 1537 1538 1539 1539 1540 1541 1542 1542 1543 1544 1545 1546 1546 1547 1548 1549 1550 1551 1552 1552 1553 1554 1554 1555 1555 1556 1557 1557 1558 1558
1514 1516 1518 1520 1522 1524 1526 1528 1529 1531 1533 1534 1536 1537 1538 1539 1540 1540 1541 1542 1543 1544 1545 1546 1547 1547 1548 1549 1550 1551 1552 1553 1553 1553 1554 1554 1555 1556 1557 1557 1558 1559 1559
1515 1516 1518 1520 1522 1524 1526 1528 1529 1531 1533 1534 1536 1537 1538 1539 1540 1541 1542 1543 1544 1545 1546 1546 1547 1548 1549 1550 1551 1552 1553 1553 1554 1554 1554 1555 1555 1556 1557 1558 1558 1559 1560
1514 1516 1518 1520 1521 1523 1525 1527 1529 1531 1533 1534 1536 1537 1538 1539 1540 1541 1542 1543 1544 1545 1546 1547 1547 1548 1549 1550 1552 1553 1554 1554 1554 1555 1555 1555 1556 1556 1557 1558 1559 1559 1560
1513 1515 1517 1519 1521 1522 1524 1526 1528 1530 1532 1534 1535 1537 1538 1539 1540 1541 1542 1543 1544 1545 1546 1547 1548 1549 1550 1551 1553 1553 1554 1555 1555 1555 1555 1555 1556 1556 1557 1558 1558 1559 1560
1513 1514 1516 1518 1520 1521 1523 1525 1527 1529 1531 1533 1534 1536 1537 1539 1540 1541 1542 1543 1544 1546 1547 1548 1549 1550 1551 1553 1554 1554 1555 1555 1555 1555 1555 1555 1556 1556 1557 1557 1558 1559 1560
1512 1514 1515 1517 1519 1520 1522 1524 1526 1528 1530 1532 1534 1535 1537 1538 1540 1541 1542 1543 1545 1546 1548 1549 1551 1551 1553 1554 1554 1555 1555 1555 1555 1555 1555 1555 1556 1556 1557 1557 1558 1558 1559
1512 1513 1515 1516 1518 1520 1521 1523 1525 1527 1529 1531 1533 1535 1537 1538 1539 1541 1542 1544 1545 1547 1549 1550 1551 1552 1553 1554 1555 1555 1555 1555 1555 1555 1555 1556 1556 1557 1557 1557 1558 1558 1559
1510 1512 1514 1516 1517 1519 1520 1522 1524 1526 1528 1530 1532 1534 1536 1538 1539 1541 1542 1544 1546 1547 1549 1550 1552 1552 1553 1554 1555 1555 1555 1555 1555 1555 1555 1556 1556 1557 1557 1557 1558 1558 1559
1509 1511 1513 1515 1516 1518 1520 1521 1523 1525 1527 1529 1531 1533 1535 1537 1539 1541 1542 1544 1546 1547 1549 1550 1551 1552 1553 1554 1555 1555 1555 1555 1555 1556 1556 1556 1557 1557 1557 1557 1558 1558 1558
1507 1509 1511 1513 1515 1516 1518 1520 1522 1524 1526 1528 1530 1532 1534 1536 1538 1540 1541 1543 1545 1547 1548 1550 1551 1552 1553 1554 1555 1555 1555 1556 1556 1556 1557 1557 1557 1557 1557 1558 1558 1558 1558
1504 1507 1508 1510 1512 1514 1517 1519 1521 1523 1525 1527 1529 1530 1532 1535 1537 1539 1541 1542 1544 1546 1547 1548 1550 1551 1552 1553 1554 1555 1555 1556 1556 1556 1557 1557 1557 1558 1558 1558 1558 1558 1558
1501 1504 1506 1508 1510 1513 1515 1518 1520 1521 1523 1525 1527 1529 1530 1532 1534 1536 1538 1540 1542 1543 1545 1546 1548 1549 1551 1552 1553 1554 1555 1555 1556 1556 1556 1557 1557 1557 1557 1558 1558 1558 1558
1496 1498 1501 1504 1506 1509 1511 1514 1517 1519 1521 1523 1525 1527 1528 1530 1531 1533 1534 1537 1539 1540 1542 1544 1545 1547 1549 1550 1552 1552 1553 1554 1554 1555 1555 1556 1556 1556 1557 1557 1557 1557 1557
1488 1491 1495 1498 1501 1505 1508 1511 1514 1517 1519 1522 1523 1525 1526 1527 1528 1530 1531 1533 1535 1536 1538 1540 1542 1544 1546 1548 1549 1551 1551 1553 1552 1553 1554 1554 1555 1555 1556 1556 1557 1557 1557
1480 1483 1487 1492 1496 1501 1505 1509 1512 1514 1516 1519 1520 1522 1523 1524 1525 1526 1527 1529 1530 1532 1534 1535 1537 1539 1541 1544 1546 1548 1549 1548 1550 1551 1551 1552 1553 1554 1555 1556 1556 1556 1557
1473 1476 1482 1487 1492 1497 1502 1506 1509 1511 1513 1515 1517 1519 1520 1521 1522 1523 1524 1525 1526 1528 1529 1531 1532 1534 1536 1539 1541 1543 1546 1547 1547 1548 1549 1550 1551 1552 1553 1554 1555 1556 1556
1469 1472 1477 1483 1488 1494 1499 1503 1506 1508 1510 1512 1513 1515 1516 1517 1518 1519 1520 1521 1522 1523 1524 1526 1527 1529 1531 1533 1535 1538 1540 1543 1544 1545 1546 1547 1548 1549 1550 1552 1553 1554 1555
1467 1470 1474 1480 1486 1491 1497 1502 1504 1506 1508 1509 1511 1512 1513 1514 1515 1516 1517 1518 1519 1519 1520 1521 1522 1524 1525 1528 1530 1532 1535 1537 1539 1541 1542 1544 1545 1546 1547 1549 1550 1552 1553